Location: Newark
(54.3386°S, 169.8415°W)
Time: 16:21:59
(UTC+00:00)

A-11 Canister half - All Passes

Search period start: 15 October 2019 00:00
Search period end: 25 October 2019 00:00
Orbit: 1527 x 1682 km, 47.3° (Epoch: 15 October)

Date Brightness Start Highest point End Pass type
(mag) Time Alt. Az. Time Alt. Az. Time Alt. Az.
15 Oct - 00:34:04 10° W 00:43:55 56° NNW 00:53:36 10° ENE daylight
15 Oct - 02:38:58 10° W 02:47:42 34° NW 02:56:15 10° NNE daylight
15 Oct - 04:47:13 10° WNW 04:50:11 12° WNW 04:53:08 10° NW daylight
15 Oct - 18:09:38 10° NE 18:11:45 11° ENE 18:13:53 10° ENE daylight
15 Oct - 20:05:37 10° NNW 20:14:12 33° NE 20:22:51 10° E daylight
15 Oct - 22:08:10 10° WNW 22:17:58 55° NNE 22:27:44 10° E daylight
16 Oct - 00:12:25 10° W 00:22:17 56° N 00:32:01 10° ENE daylight
16 Oct - 02:17:17 10° W 02:26:07 35° NW 02:34:46 10° NNE daylight
16 Oct - 04:25:00 10° WNW 04:28:41 13° WNW 04:32:20 10° NW daylight
16 Oct - 19:44:09 10° NNW 19:52:37 32° NE 20:01:10 10° E daylight
16 Oct - 21:46:35 10° WNW 21:56:20 54° NNE 22:06:07 10° E daylight
16 Oct - 23:50:47 10° W 00:00:40 57° N 00:10:25 10° ENE daylight
17 Oct - 01:55:37 10° W 02:04:32 37° NNW 02:13:18 10° NNE daylight
17 Oct - 04:02:55 10° W 04:07:10 13° NW 04:11:23 10° NNW daylight
17 Oct - 19:22:42 10° NNW 19:31:03 31° NE 19:39:29 10° E daylight
17 Oct - 21:24:59 10° WNW 21:34:43 54° NNE 21:44:29 10° E daylight
17 Oct - 23:29:09 10° W 23:39:02 57° N 23:48:49 10° ENE daylight
18 Oct - 01:33:56 10° W 01:42:58 38° NNW 01:51:50 10° NNE daylight
18 Oct - 03:40:55 10° W 03:45:39 14° NW 03:50:22 10° NNW daylight
18 Oct - 19:01:16 10° NNW 19:09:29 30° NE 19:17:47 10° E daylight
18 Oct - 21:03:24 10° NW 21:13:06 53° NNE 21:22:51 10° E daylight
18 Oct - 23:07:30 10° W 23:17:24 58° N 23:27:14 10° ENE daylight
19 Oct - 01:12:16 10° W 01:21:22 39° NNW 01:30:20 10° NNE daylight
19 Oct - 03:18:59 10° W 03:24:08 15° NW 03:29:15 10° NNW daylight
19 Oct - 18:39:51 10° NNW 18:47:55 29° NE 18:56:05 10° E daylight
19 Oct - 20:41:50 10° NW 20:51:28 52° NNE 21:01:12 10° E daylight
19 Oct - 22:45:53 10° W 22:55:47 58° N 23:05:37 10° ENE daylight
20 Oct - 00:50:36 10° W 00:59:46 40° NNW 01:08:50 10° NNE daylight
20 Oct - 02:57:05 10° W 03:02:37 16° NW 03:08:06 10° NNW daylight
20 Oct - 18:18:27 10° N 18:26:22 28° NE 18:34:23 10° E daylight
20 Oct - 20:20:15 10° NW 20:29:52 51° NNE 20:39:34 10° E daylight
20 Oct - 22:24:15 10° W 22:34:09 59° N 22:44:01 10° ENE daylight
21 Oct - 00:28:56 10° W 00:38:11 41° NNW 00:47:19 10° NE daylight
21 Oct - 02:35:13 10° W 02:41:06 17° NW 02:46:55 10° NNW daylight
21 Oct - 17:57:02 10° N 18:04:48 26° NE 18:12:40 10° E daylight
21 Oct - 19:58:40 10° NW 20:08:14 50° NNE 20:17:55 10° E daylight
21 Oct - 22:02:37 10° W 22:12:31 59° N 22:22:24 10° ENE daylight
22 Oct - 00:07:18 10° W 00:16:36 42° NNW 00:25:48 10° NE daylight
22 Oct - 02:13:23 10° W 02:19:34 18° NW 02:25:42 10° NNW daylight
22 Oct - 17:35:40 10° N 17:43:15 25° NE 17:50:57 10° E daylight
22 Oct - 19:37:07 10° NW 19:46:38 49° NNE 19:56:17 10° E daylight
22 Oct - 21:41:00 10° WNW 21:50:53 59° N 22:00:47 10° ENE daylight
22 Oct - 23:45:38 10° W 23:55:00 43° NNW 00:04:16 10° NE daylight
23 Oct - 01:51:34 10° W 01:58:02 19° NW 02:04:26 10° N daylight
23 Oct - 17:14:18 10° N 17:21:42 24° NE 17:29:13 10° E daylight
23 Oct - 19:15:34 10° NW 19:25:01 48° NNE 19:34:37 10° E daylight
23 Oct - 21:19:23 10° WNW 21:29:15 59° N 21:39:10 10° ENE daylight
23 Oct - 23:23:59 10° W 23:33:24 44° NNW 23:42:44 10° NE daylight
24 Oct - 01:29:47 10° W 01:36:30 20° NW 01:43:09 10° N daylight
24 Oct - 16:52:57 10° N 17:00:09 23° NE 17:07:29 10° E daylight
24 Oct - 18:54:01 10° NW 19:03:24 47° NNE 19:12:58 10° E daylight
24 Oct - 20:57:45 10° WNW 21:07:37 59° N 21:17:33 10° ENE daylight
24 Oct - 23:02:20 10° W 23:11:47 45° NNW 23:21:12 10° NE daylight
